EZY48JH LSGG-EGPH

Flight info

Callsign EZY48JH
Flight time 1h 50m
Altitude 36000
Route DIPIR T37 IBABA DCT TUTAX DCT OBURO DCT OKRIX DCT CLM DCT KOPOR DCT VESAN DCT RATUK DCT SOVAT L613 LEHOC DCT INPIP
Aircraft A320/M-SDE3FGHIRWY/LB1

Departure

Time 2026-04-25 12:04
Airport Geneva International Airport (LSGG)

Arrival

Time 2026-04-25 13:55
Airport Edinburgh Airport (EGPH)
Time Latitude Longitude Altitude Speed Heading
2026-04-25 11:26 46.23560 6.11012 1401 ft 0 kts 135°
2026-04-25 11:55 46.23549 6.11027 1394 ft 5 kts 136°
2026-04-25 11:55 46.23525 6.11069 1401 ft 5 kts 109°
2026-04-25 11:56 46.23544 6.11120 1393 ft 9 kts 48°
2026-04-25 11:56 46.23599 6.11160 1394 ft 9 kts 338°
2026-04-25 11:56 46.23644 6.11103 1400 ft 8 kts 317°
2026-04-25 11:56 46.23662 6.11078 1386 ft 0 kts 316°
2026-04-25 11:57 46.23665 6.11075 1386 ft 3 kts 316°
2026-04-25 11:57 46.23705 6.11083 1387 ft 9 kts 34°
2026-04-25 11:57 46.23763 6.11169 1377 ft 15 kts 41°
2026-04-25 11:58 46.23840 6.11278 1374 ft 16 kts 46°
2026-04-25 11:58 46.23922 6.11399 1375 ft 18 kts 46°
2026-04-25 11:58 46.24012 6.11532 1371 ft 19 kts 45°
2026-04-25 11:58 46.24113 6.11678 1367 ft 22 kts 45°
2026-04-25 11:59 46.24212 6.11818 1363 ft 21 kts 46°
2026-04-25 11:59 46.24321 6.11985 1363 ft 23 kts 45°
2026-04-25 11:59 46.24432 6.12149 1370 ft 22 kts 46°
2026-04-25 12:00 46.24669 6.12496 1365 ft 29 kts 45°
2026-04-25 12:00 46.24794 6.12662 1362 ft 13 kts 27°
2026-04-25 12:00 46.24898 6.12780 1366 ft 10 kts 63°
2026-04-25 12:01 46.24952 6.12853 1367 ft 12 kts 360°
2026-04-25 12:01 46.24993 6.12829 1367 ft 2 kts 315°
2026-04-25 12:01 46.24998 6.12817 1368 ft 0 kts 302°
2026-04-25 12:01 46.25002 6.12805 1368 ft 5 kts 290°
2026-04-25 12:02 46.25030 6.12689 1372 ft 2 kts 277°
2026-04-25 12:02 46.25026 6.12685 1372 ft 0 kts 228°
2026-04-25 12:03 46.25017 6.12672 1372 ft 10 kts 226°
2026-04-25 12:03 46.24801 6.12356 1372 ft 80 kts 225°
2026-04-25 12:04 46.24267 6.11572 1374 ft 137 kts 225°
2026-04-25 12:04 46.23487 6.10428 1426 ft 177 kts 225°
2026-04-25 12:04 46.22663 6.09245 2196 ft 163 kts 225°
2026-04-25 12:04 46.21864 6.08098 2866 ft 161 kts 226°
2026-04-25 12:05 46.21071 6.06958 3518 ft 162 kts 227°
2026-04-25 12:05 46.20284 6.05792 4130 ft 163 kts 227°
2026-04-25 12:05 46.19498 6.04624 4707 ft 166 kts 227°
2026-04-25 12:05 46.18648 6.03361 5013 ft 186 kts 228°
2026-04-25 12:06 46.17695 6.01946 5252 ft 208 kts 227°
2026-04-25 12:06 46.16625 6.00374 5520 ft 228 kts 226°
2026-04-25 12:06 46.15463 5.98660 5875 ft 251 kts 227°
2026-04-25 12:06 46.14199 5.96763 6396 ft 270 kts 227°
2026-04-25 12:07 46.12896 5.94776 7175 ft 275 kts 232°
2026-04-25 12:07 46.11965 5.92378 7925 ft 278 kts 256°
2026-04-25 12:07 46.11782 5.89619 8670 ft 281 kts 278°
2026-04-25 12:07 46.12348 5.86941 8941 ft 280 kts 301°
2026-04-25 12:08 46.13601 5.84829 9013 ft 278 kts 324°
2026-04-25 12:08 46.15348 5.83631 9651 ft 280 kts 346°
2026-04-25 12:08 46.17287 5.83248 10434 ft 283 kts 355°
2026-04-25 12:08 46.19320 5.82979 10745 ft 305 kts 355°
2026-04-25 12:09 46.21492 5.82705 11156 ft 319 kts 356°
2026-04-25 12:09 46.23715 5.82431 11881 ft 323 kts 355°
2026-04-25 12:09 46.25966 5.82153 12615 ft 327 kts 356°
2026-04-25 12:09 46.28250 5.81869 13355 ft 330 kts 356°
2026-04-25 12:10 46.30547 5.81578 14109 ft 333 kts 356°
2026-04-25 12:10 46.32860 5.81282 14793 ft 335 kts 355°
2026-04-25 12:10 46.35194 5.80987 15469 ft 338 kts 355°
2026-04-25 12:10 46.37541 5.80692 16136 ft 340 kts 355°
2026-04-25 12:11 46.39898 5.80312 16807 ft 342 kts 348°
2026-04-25 12:11 46.42175 5.79285 17453 ft 345 kts 336°
2026-04-25 12:11 46.44309 5.77645 18055 ft 349 kts 332°
2026-04-25 12:11 46.46435 5.75928 18680 ft 351 kts 332°
2026-04-25 12:12 46.48579 5.74195 19232 ft 354 kts 332°
2026-04-25 12:12 46.50006 5.73040 19608 ft 356 kts 332°
2026-04-25 12:12 46.52909 5.70690 20353 ft 359 kts 332°
2026-04-25 12:12 46.55102 5.68917 20904 ft 362 kts 332°
2026-04-25 12:13 46.57308 5.67133 21458 ft 364 kts 332°
2026-04-25 12:13 46.59530 5.65332 21966 ft 368 kts 331°
2026-04-25 12:13 46.61775 5.63507 22450 ft 372 kts 331°
2026-04-25 12:13 46.64043 5.61658 22989 ft 375 kts 331°
2026-04-25 12:14 46.66330 5.59793 23524 ft 378 kts 331°
2026-04-25 12:14 46.68635 5.57911 23978 ft 381 kts 331°
2026-04-25 12:14 46.70963 5.56025 24421 ft 384 kts 331°
2026-04-25 12:14 46.73308 5.54140 24846 ft 387 kts 332°
2026-04-25 12:15 46.75639 5.52260 25250 ft 389 kts 331°
2026-04-25 12:15 46.78006 5.50308 25655 ft 392 kts 330°
2026-04-25 12:15 46.80372 5.48321 26049 ft 395 kts 330°
2026-04-25 12:15 46.82752 5.46303 26439 ft 397 kts 330°
2026-04-25 12:16 46.85055 5.44053 26825 ft 400 kts 321°
2026-04-25 12:16 46.87043 5.41197 27219 ft 402 kts 310°
2026-04-25 12:16 46.88635 5.37821 27600 ft 406 kts 300°
2026-04-25 12:16 46.89777 5.34026 27951 ft 410 kts 292°
2026-04-25 12:17 46.90770 5.30103 28307 ft 413 kts 292°
2026-04-25 12:17 46.92011 5.26311 28621 ft 415 kts 302°
2026-04-25 12:17 46.93697 5.22894 28946 ft 416 kts 312°
2026-04-25 12:17 46.95770 5.19921 29284 ft 418 kts 318°
2026-04-25 12:18 46.97937 5.17079 29609 ft 420 kts 318°
2026-04-25 12:18 47.00112 5.14199 29939 ft 423 kts 317°
2026-04-25 12:18 47.02297 5.11291 30237 ft 425 kts 317°
2026-04-25 12:18 47.04487 5.08375 30518 ft 427 kts 317°
2026-04-25 12:19 47.08154 5.03498 30980 ft 429 kts 317°
2026-04-25 12:19 47.11102 4.99570 31491 ft 426 kts 317°
2026-04-25 12:19 47.13289 4.96651 31868 ft 425 kts 317°
2026-04-25 12:20 47.15478 4.93727 32213 ft 425 kts 316°
2026-04-25 12:20 47.17664 4.90808 32487 ft 426 kts 316°
2026-04-25 12:20 47.19859 4.87877 32797 ft 426 kts 316°
2026-04-25 12:20 47.22047 4.84951 33139 ft 425 kts 316°
2026-04-25 12:21 47.24235 4.82018 33491 ft 424 kts 316°
2026-04-25 12:21 47.26415 4.79092 33845 ft 424 kts 316°
2026-04-25 12:21 47.28589 4.76169 34182 ft 423 kts 316°
2026-04-25 12:21 47.30726 4.73288 34508 ft 421 kts 316°
2026-04-25 12:22 47.32882 4.70376 34817 ft 420 kts 316°
2026-04-25 12:22 47.35031 4.67472 35107 ft 419 kts 316°
2026-04-25 12:22 47.37185 4.64566 35388 ft 419 kts 316°
2026-04-25 12:22 47.39331 4.61670 35647 ft 418 kts 316°
2026-04-25 12:23 47.41476 4.58769 35901 ft 418 kts 316°
2026-04-25 12:23 47.43614 4.55872 36084 ft 419 kts 316°
2026-04-25 12:23 47.45068 4.53903 36114 ft 419 kts 316°
2026-04-25 12:24 47.49340 4.48106 36141 ft 421 kts 316°
2026-04-25 12:24 47.53659 4.42227 36139 ft 422 kts 315°
2026-04-25 12:25 47.57973 4.36333 36142 ft 422 kts 315°
2026-04-25 12:25 47.62289 4.30418 36148 ft 422 kts 315°
2026-04-25 12:26 47.66270 4.24066 36147 ft 420 kts 303°
2026-04-25 12:26 47.69532 4.16873 36146 ft 421 kts 303°
2026-04-25 12:27 47.72820 4.09668 36136 ft 422 kts 303°
2026-04-25 12:27 47.76110 4.02441 36140 ft 422 kts 303°
2026-04-25 12:28 47.79380 3.95209 36139 ft 422 kts 302°
2026-04-25 12:28 47.82638 3.87969 36147 ft 421 kts 302°
2026-04-25 12:29 47.85900 3.80701 36143 ft 421 kts 302°
2026-04-25 12:29 47.89157 3.73443 36152 ft 421 kts 302°
2026-04-25 12:30 47.92407 3.66180 36146 ft 421 kts 302°
2026-04-25 12:30 47.95907 3.59254 36164 ft 423 kts 314°
2026-04-25 12:31 48.00729 3.54227 36150 ft 427 kts 333°
2026-04-25 12:31 48.06231 3.50799 36158 ft 429 kts 335°
2026-04-25 12:32 48.11744 3.47375 36160 ft 429 kts 335°
2026-04-25 12:32 48.17242 3.43942 36160 ft 429 kts 335°
2026-04-25 12:33 48.22752 3.40491 36156 ft 430 kts 335°
2026-04-25 12:33 48.28278 3.37034 36156 ft 431 kts 335°
2026-04-25 12:34 48.33805 3.33575 36155 ft 431 kts 335°
2026-04-25 12:34 48.39343 3.30099 36173 ft 431 kts 335°
2026-04-25 12:35 48.44862 3.26615 36159 ft 430 kts 335°
2026-04-25 12:35 48.50381 3.23119 36162 ft 430 kts 335°
2026-04-25 12:36 48.55887 3.19626 36163 ft 430 kts 335°
2026-04-25 12:36 48.61402 3.16127 36178 ft 430 kts 335°
2026-04-25 12:37 48.66918 3.12630 36165 ft 430 kts 334°
2026-04-25 12:37 48.72420 3.09120 36167 ft 430 kts 334°
2026-04-25 12:38 48.77931 3.05577 36170 ft 430 kts 334°
2026-04-25 12:38 48.83453 3.02022 36170 ft 432 kts 334°
2026-04-25 12:39 48.88721 2.97684 36177 ft 431 kts 327°
2026-04-25 12:39 48.93913 2.93150 36175 ft 431 kts 327°
2026-04-25 12:40 48.99071 2.88630 36171 ft 431 kts 327°
2026-04-25 12:40 49.04261 2.84068 36178 ft 431 kts 327°
2026-04-25 12:41 49.09445 2.79504 36170 ft 430 kts 327°
2026-04-25 12:41 49.14628 2.74930 36169 ft 430 kts 327°
2026-04-25 12:42 49.19811 2.70352 36171 ft 430 kts 327°
2026-04-25 12:42 49.24984 2.65770 36180 ft 430 kts 327°
2026-04-25 12:43 49.30180 2.61154 36178 ft 432 kts 327°
2026-04-25 12:43 49.37983 2.54184 36183 ft 433 kts 327°
2026-04-25 12:44 49.43187 2.49527 36185 ft 433 kts 327°
2026-04-25 12:45 49.51027 2.42636 36194 ft 434 kts 333°
2026-04-25 12:45 49.59716 2.38394 36187 ft 437 kts 341°
2026-04-25 12:46 49.65546 2.35741 36184 ft 437 kts 340°
2026-04-25 12:46 49.71373 2.33081 36185 ft 437 kts 340°
2026-04-25 12:47 49.77172 2.30438 36184 ft 437 kts 340°
2026-04-25 12:47 49.83000 2.27779 36183 ft 437 kts 340°
2026-04-25 12:48 49.88830 2.25096 36183 ft 438 kts 340°
2026-04-25 12:48 49.94690 2.22398 36190 ft 439 kts 340°
2026-04-25 12:49 50.00545 2.19699 36190 ft 439 kts 340°
2026-04-25 12:49 50.06393 2.16999 36192 ft 438 kts 340°
2026-04-25 12:50 50.12242 2.14294 36196 ft 438 kts 340°
2026-04-25 12:50 50.18081 2.11578 36206 ft 438 kts 340°
2026-04-25 12:51 50.23924 2.08858 36190 ft 437 kts 340°
2026-04-25 12:51 50.29754 2.06137 36197 ft 437 kts 340°
2026-04-25 12:52 50.35530 2.03186 36191 ft 434 kts 332°
2026-04-25 12:52 50.40537 1.98125 36219 ft 427 kts 315°
2026-04-25 12:53 50.45002 1.92006 36207 ft 426 kts 316°
2026-04-25 12:53 50.49477 1.85904 36217 ft 426 kts 316°
2026-04-25 12:54 50.53932 1.79817 36222 ft 428 kts 316°
2026-04-25 12:54 50.58425 1.73655 36216 ft 429 kts 316°
2026-04-25 12:55 50.62186 1.68487 36221 ft 428 kts 316°
2026-04-25 12:55 50.67396 1.61296 36218 ft 428 kts 316°
2026-04-25 12:56 50.71869 1.55108 36222 ft 428 kts 316°
2026-04-25 12:56 50.76340 1.48894 36226 ft 428 kts 315°
2026-04-25 12:57 50.80806 1.42669 36230 ft 428 kts 315°
2026-04-25 12:57 50.85283 1.36437 36232 ft 430 kts 316°
2026-04-25 12:58 50.89774 1.30174 36237 ft 431 kts 315°
2026-04-25 12:58 50.94250 1.23898 36239 ft 431 kts 315°
2026-04-25 12:59 50.98747 1.17574 36243 ft 431 kts 315°
2026-04-25 12:59 51.03220 1.11272 36245 ft 431 kts 315°
2026-04-25 13:00 51.06231 1.07056 36244 ft 431 kts 318°
2026-04-25 13:00 51.12989 1.00221 36245 ft 438 kts 335°
2026-04-25 13:01 51.18710 0.96802 36238 ft 439 kts 336°
2026-04-25 13:01 51.24439 0.93423 36233 ft 440 kts 336°
2026-04-25 13:02 51.30194 0.90015 36235 ft 441 kts 336°
2026-04-25 13:02 51.35764 0.86032 36228 ft 437 kts 327°
2026-04-25 13:03 51.41020 0.81113 36223 ft 437 kts 326°
2026-04-25 13:03 51.46260 0.76163 36219 ft 437 kts 326°
2026-04-25 13:04 51.51462 0.71132 36220 ft 437 kts 326°
2026-04-25 13:04 51.56641 0.66027 36220 ft 437 kts 325°
2026-04-25 13:05 51.61813 0.60922 36219 ft 436 kts 326°
2026-04-25 13:05 51.66997 0.55823 36219 ft 436 kts 326°
2026-04-25 13:06 51.72140 0.50756 36219 ft 436 kts 326°
2026-04-25 13:06 51.77310 0.45649 36218 ft 435 kts 326°
2026-04-25 13:07 51.82471 0.40530 36222 ft 435 kts 326°
2026-04-25 13:07 51.87610 0.35412 36223 ft 434 kts 326°
2026-04-25 13:08 51.92755 0.30282 36219 ft 434 kts 326°
2026-04-25 13:08 51.97895 0.25142 36219 ft 434 kts 326°
2026-04-25 13:09 52.03032 0.20000 36219 ft 434 kts 326°
2026-04-25 13:09 52.08163 0.14851 36205 ft 433 kts 326°
2026-04-25 13:10 52.13285 0.09698 36208 ft 433 kts 326°
2026-04-25 13:10 52.18401 0.04526 36208 ft 433 kts 326°
2026-04-25 13:11 52.23512 -0.00661 36212 ft 433 kts 326°
2026-04-25 13:11 52.28610 -0.05842 36218 ft 431 kts 326°
2026-04-25 13:12 52.32840 -0.10149 36206 ft 431 kts 326°
2026-04-25 13:12 52.37097 -0.14500 36204 ft 430 kts 326°
2026-04-25 13:13 52.42997 -0.20535 36201 ft 430 kts 326°
2026-04-25 13:13 52.48077 -0.25750 36198 ft 430 kts 326°
2026-04-25 13:14 52.53142 -0.30968 36199 ft 430 kts 326°
2026-04-25 13:14 52.58210 -0.36210 36193 ft 430 kts 326°
2026-04-25 13:15 52.63273 -0.41456 36193 ft 430 kts 326°
2026-04-25 13:15 52.68336 -0.46716 36193 ft 430 kts 326°
2026-04-25 13:16 52.73396 -0.51978 36195 ft 430 kts 326°
2026-04-25 13:16 52.78454 -0.57264 36216 ft 430 kts 326°
2026-04-25 13:17 52.83508 -0.62563 36219 ft 430 kts 326°
2026-04-25 13:17 52.88563 -0.67869 36220 ft 430 kts 326°
2026-04-25 13:18 52.93613 -0.73181 36219 ft 430 kts 326°
2026-04-25 13:18 52.98663 -0.78508 36217 ft 430 kts 326°
2026-04-25 13:19 53.03706 -0.83852 36215 ft 430 kts 326°
2026-04-25 13:19 53.07903 -0.88310 36212 ft 430 kts 326°
2026-04-25 13:20 53.13798 -0.94582 36203 ft 430 kts 326°
2026-04-25 13:20 53.18841 -0.99964 36204 ft 430 kts 326°
2026-04-25 13:21 53.23876 -1.05370 36202 ft 430 kts 325°
2026-04-25 13:21 53.28881 -1.10752 36201 ft 431 kts 326°
2026-04-25 13:22 53.33927 -1.16176 36202 ft 431 kts 326°
2026-04-25 13:23 53.41497 -1.24335 36198 ft 431 kts 325°
2026-04-25 13:23 53.46537 -1.29801 36198 ft 431 kts 325°
2026-04-25 13:24 53.51564 -1.35284 36200 ft 431 kts 325°
2026-04-25 13:24 53.56594 -1.40790 36206 ft 431 kts 325°
2026-04-25 13:25 53.61629 -1.46303 36208 ft 431 kts 325°
2026-04-25 13:25 53.66656 -1.51811 36214 ft 431 kts 325°
2026-04-25 13:26 53.71687 -1.57331 36219 ft 432 kts 325°
2026-04-25 13:26 53.76724 -1.62900 36220 ft 433 kts 325°
2026-04-25 13:27 53.81774 -1.68489 36220 ft 434 kts 325°
2026-04-25 13:27 53.86819 -1.74090 36220 ft 434 kts 325°
2026-04-25 13:28 53.91861 -1.79706 36220 ft 434 kts 325°
2026-04-25 13:28 53.96872 -1.85294 36218 ft 434 kts 325°
2026-04-25 13:29 54.01909 -1.90941 36206 ft 434 kts 325°
2026-04-25 13:29 54.06959 -1.96607 36209 ft 435 kts 325°
2026-04-25 13:30 54.14526 -2.05132 36215 ft 435 kts 324°
2026-04-25 13:31 54.22081 -2.13689 36214 ft 435 kts 324°
2026-04-25 13:31 54.27140 -2.19442 36211 ft 437 kts 324°
2026-04-25 13:32 54.32205 -2.25221 36209 ft 438 kts 324°
2026-04-25 13:32 54.37277 -2.31025 36103 ft 438 kts 324°
2026-04-25 13:32 54.39790 -2.33910 35846 ft 433 kts 324°
2026-04-25 13:33 54.42286 -2.36779 35419 ft 429 kts 324°
2026-04-25 13:33 54.44759 -2.39624 34908 ft 428 kts 324°
2026-04-25 13:33 54.47232 -2.42467 34388 ft 427 kts 324°
2026-04-25 13:33 54.48863 -2.44341 34025 ft 427 kts 325°
2026-04-25 13:34 54.52154 -2.48130 33323 ft 423 kts 325°
2026-04-25 13:34 54.54586 -2.50945 32815 ft 420 kts 325°
2026-04-25 13:34 54.57004 -2.53749 32310 ft 418 kts 325°
2026-04-25 13:34 54.59416 -2.56547 31817 ft 416 kts 325°
2026-04-25 13:35 54.61810 -2.59324 31316 ft 414 kts 325°
2026-04-25 13:35 54.64194 -2.62097 30844 ft 413 kts 325°
2026-04-25 13:35 54.66543 -2.64834 30369 ft 411 kts 325°
2026-04-25 13:35 54.68907 -2.67595 29850 ft 409 kts 325°
2026-04-25 13:36 54.71287 -2.70378 29404 ft 406 kts 325°
2026-04-25 13:36 54.73617 -2.73106 28944 ft 403 kts 325°
2026-04-25 13:36 54.75929 -2.75816 28507 ft 400 kts 325°
2026-04-25 13:36 54.78192 -2.78470 28064 ft 397 kts 325°
2026-04-25 13:37 54.80470 -2.81145 27623 ft 395 kts 325°
2026-04-25 13:37 54.82740 -2.83812 27183 ft 393 kts 325°
2026-04-25 13:37 54.84997 -2.86474 26734 ft 391 kts 325°
2026-04-25 13:37 54.87245 -2.89127 26281 ft 390 kts 325°
2026-04-25 13:38 54.89502 -2.91728 25757 ft 391 kts 326°
2026-04-25 13:38 54.91818 -2.94228 25207 ft 392 kts 328°
2026-04-25 13:38 54.94163 -2.96663 24662 ft 394 kts 328°
2026-04-25 13:38 54.96517 -2.99079 24242 ft 391 kts 328°
2026-04-25 13:39 54.98848 -3.01481 23834 ft 389 kts 329°
2026-04-25 13:39 55.01166 -3.03898 23311 ft 387 kts 328°
2026-04-25 13:39 55.03463 -3.06325 22832 ft 385 kts 328°
2026-04-25 13:39 55.05739 -3.08750 22381 ft 382 kts 328°
2026-04-25 13:40 55.07992 -3.11163 21938 ft 379 kts 328°
2026-04-25 13:40 55.10237 -3.13567 21500 ft 376 kts 327°
2026-04-25 13:40 55.12460 -3.15947 21061 ft 373 kts 327°
2026-04-25 13:40 55.14666 -3.18311 20635 ft 371 kts 327°
2026-04-25 13:41 55.16857 -3.20660 20218 ft 368 kts 327°
2026-04-25 13:41 55.19029 -3.22993 19811 ft 365 kts 327°
2026-04-25 13:41 55.21190 -3.25321 19400 ft 363 kts 327°
2026-04-25 13:41 55.23328 -3.27627 19009 ft 360 kts 327°
2026-04-25 13:42 55.25451 -3.29917 18636 ft 357 kts 327°
2026-04-25 13:42 55.27560 -3.32195 18149 ft 356 kts 327°
2026-04-25 13:42 55.29662 -3.34468 17688 ft 355 kts 327°
2026-04-25 13:42 55.31753 -3.36734 17277 ft 352 kts 327°
2026-04-25 13:43 55.33805 -3.38959 16881 ft 349 kts 327°
2026-04-25 13:43 55.35892 -3.41222 16478 ft 347 kts 327°
2026-04-25 13:43 55.37936 -3.43439 16100 ft 344 kts 327°
2026-04-25 13:43 55.39939 -3.45615 15736 ft 341 kts 327°
2026-04-25 13:44 55.41948 -3.47804 15369 ft 339 kts 327°
2026-04-25 13:44 55.43944 -3.49983 14993 ft 336 kts 327°
2026-04-25 13:44 55.45918 -3.52137 14752 ft 330 kts 327°
2026-04-25 13:44 55.47860 -3.54253 14629 ft 319 kts 326°
2026-04-25 13:45 55.49702 -3.56262 14445 ft 312 kts 327°
2026-04-25 13:45 55.51536 -3.58269 14181 ft 308 kts 326°
2026-04-25 13:45 55.53345 -3.60256 13863 ft 306 kts 327°
2026-04-25 13:45 55.55146 -3.62237 13529 ft 303 kts 326°
2026-04-25 13:46 55.56927 -3.64201 13170 ft 301 kts 327°
2026-04-25 13:46 55.58695 -3.66148 12815 ft 299 kts 327°
2026-04-25 13:46 55.60462 -3.68087 12455 ft 298 kts 327°
2026-04-25 13:46 55.62222 -3.70021 12083 ft 297 kts 326°
2026-04-25 13:47 55.63963 -3.71939 11777 ft 294 kts 327°
2026-04-25 13:47 55.65692 -3.73845 11432 ft 292 kts 326°
2026-04-25 13:47 55.67405 -3.75736 11095 ft 289 kts 326°
2026-04-25 13:47 55.69107 -3.77618 10723 ft 288 kts 326°
2026-04-25 13:48 55.70802 -3.79498 10353 ft 286 kts 327°
2026-04-25 13:48 55.72485 -3.81372 9986 ft 285 kts 327°
2026-04-25 13:48 55.74159 -3.83238 9411 ft 288 kts 326°
2026-04-25 13:48 55.75889 -3.85158 8609 ft 299 kts 327°
2026-04-25 13:49 55.77888 -3.86364 7784 ft 313 kts 355°
2026-04-25 13:49 55.80056 -3.85646 6959 ft 328 kts 24°
2026-04-25 13:49 55.81847 -3.83056 6056 ft 342 kts 52°
2026-04-25 13:49 55.82861 -3.79206 5424 ft 344 kts 72°
2026-04-25 13:50 55.83551 -3.75247 5132 ft 325 kts 72°
2026-04-25 13:50 55.84210 -3.71447 4301 ft 319 kts 72°
2026-04-25 13:50 55.84845 -3.67778 3809 ft 301 kts 72°
2026-04-25 13:50 55.85635 -3.64491 3509 ft 278 kts 60°
2026-04-25 13:51 55.86634 -3.61659 3153 ft 261 kts 57°
2026-04-25 13:51 55.87556 -3.59078 2829 ft 234 kts 58°
2026-04-25 13:51 55.88366 -3.56726 2550 ft 210 kts 59°
2026-04-25 13:51 55.89083 -3.54630 2257 ft 189 kts 60°
2026-04-25 13:52 55.89729 -3.52739 2006 ft 167 kts 61°
2026-04-25 13:52 55.90301 -3.51062 1786 ft 151 kts 60°
2026-04-25 13:52 55.90823 -3.49532 1591 ft 143 kts 61°
2026-04-25 13:52 55.91325 -3.48057 1412 ft 137 kts 62°
2026-04-25 13:53 55.91821 -3.46601 1214 ft 140 kts 62°
2026-04-25 13:53 55.92327 -3.45116 1002 ft 141 kts 59°
2026-04-25 13:53 55.92825 -3.43650 796 ft 138 kts 60°
2026-04-25 13:53 55.93318 -3.42180 639 ft 137 kts 58°
2026-04-25 13:54 55.93812 -3.40740 401 ft 135 kts 58°
2026-04-25 13:54 55.94303 -3.39300 233 ft 138 kts 58°
2026-04-25 13:54 55.94791 -3.37866 120 ft 126 kts 59°
2026-04-25 13:54 55.95173 -3.36739 112 ft 81 kts 59°
2026-04-25 13:55 55.95388 -3.36110 110 ft 43 kts 58°
2026-04-25 13:55 55.95509 -3.35751 113 ft 29 kts 59°
2026-04-25 13:55 55.95556 -3.35612 113 ft 8 kts 58°
2026-04-25 13:55 55.95548 -3.35497 113 ft 16 kts 138°
2026-04-25 13:56 55.95432 -3.35415 116 ft 14 kts 207°
2026-04-25 13:56 55.95381 -3.35552 114 ft 19 kts 238°
2026-04-25 13:56 55.95296 -3.35806 114 ft 27 kts 240°
2026-04-25 13:56 55.95204 -3.35984 115 ft 12 kts 159°
2026-04-25 13:57 55.95123 -3.35900 114 ft 14 kts 147°
2026-04-25 13:57 55.95109 -3.35847 115 ft 15 kts 106°
2026-04-25 13:57 55.94975 -3.35900 116 ft 13 kts 243°
2026-04-25 13:57 55.94955 -3.36013 116 ft 4 kts 255°
2026-04-25 13:58 55.94952 -3.36030 113 ft 0 kts 254°